WMT7M LROP-LBSF

Flight info

Callsign WMT7M
Flight time 0h 42m
Altitude 32000
Route POLUN DCT TIMUR/N0433F310 N181 GOL
Aircraft A320/M-SDE3FGHIRWY/LB1

Departure

Time 2026-04-30 21:21
Airport Bucharest Henri Coandă International Airport (LROP)

Arrival

Time 2026-04-30 22:04
Airport Sofia Airport (LBSF)
Time Latitude Longitude Altitude Speed Heading
2026-04-30 21:06 44.57014 26.08080 322 ft 0 kts 354°
2026-04-30 21:15 44.57001 26.08082 321 ft 2 kts 354°
2026-04-30 21:15 44.56984 26.08084 320 ft 2 kts 354°
2026-04-30 21:16 44.56967 26.08087 322 ft 2 kts 354°
2026-04-30 21:16 44.56950 26.08088 320 ft 2 kts 33°
2026-04-30 21:16 44.56942 26.08077 320 ft 0 kts 79°
2026-04-30 21:17 44.56942 26.08082 320 ft 2 kts 79°
2026-04-30 21:18 44.56945 26.08110 322 ft 4 kts 81°
2026-04-30 21:18 44.56951 26.08165 322 ft 7 kts 81°
2026-04-30 21:18 44.56948 26.08247 321 ft 10 kts 94°
2026-04-30 21:18 44.56946 26.08354 321 ft 12 kts 108°
2026-04-30 21:19 44.56898 26.08462 322 ft 15 kts 97°
2026-04-30 21:19 44.56960 26.08545 322 ft 15 kts 356°
2026-04-30 21:19 44.57074 26.08528 322 ft 18 kts 353°
2026-04-30 21:19 44.57208 26.08508 323 ft 21 kts 354°
2026-04-30 21:20 44.57361 26.08486 321 ft 24 kts 354°
2026-04-30 21:20 44.57508 26.08463 323 ft 16 kts 353°
2026-04-30 21:20 44.57630 26.08458 323 ft 19 kts 19°
2026-04-30 21:20 44.57674 26.08581 324 ft 16 kts 88°
2026-04-30 21:21 44.57708 26.09027 322 ft 81 kts 84°
2026-04-30 21:21 44.57788 26.10093 323 ft 136 kts 83°
2026-04-30 21:21 44.58029 26.13263 979 ft 178 kts 85°
2026-04-30 21:22 44.58118 26.14988 1779 ft 175 kts 85°
2026-04-30 21:22 44.58275 26.20314 3722 ft 202 kts 79°
2026-04-30 21:23 44.58492 26.22374 4162 ft 225 kts 78°
2026-04-30 21:23 44.58739 26.24639 4798 ft 241 kts 78°
2026-04-30 21:23 44.58992 26.29414 6568 ft 257 kts 98°
2026-04-30 21:24 44.58243 26.31749 7360 ft 272 kts 125°
2026-04-30 21:24 44.56736 26.33418 8178 ft 284 kts 154°
2026-04-30 21:24 44.54787 26.34016 9041 ft 291 kts 173°
2026-04-30 21:24 44.52771 26.34294 9938 ft 293 kts 174°
2026-04-30 21:25 44.48619 26.34858 11115 ft 317 kts 174°
2026-04-30 21:25 44.46348 26.35176 11382 ft 337 kts 174°
2026-04-30 21:25 44.43986 26.35512 11952 ft 345 kts 174°
2026-04-30 21:26 44.39231 26.34572 13319 ft 353 kts 206°
2026-04-30 21:26 44.37184 26.32687 14031 ft 354 kts 224°
2026-04-30 21:27 44.34669 26.26907 15343 ft 352 kts 255°
2026-04-30 21:27 44.33996 26.23610 16028 ft 353 kts 256°
2026-04-30 21:27 44.33319 26.20307 16693 ft 355 kts 255°
2026-04-30 21:28 44.31951 26.13658 18017 ft 358 kts 255°
2026-04-30 21:28 44.31250 26.10264 18681 ft 360 kts 255°
2026-04-30 21:28 44.29865 26.03598 19940 ft 360 kts 256°
2026-04-30 21:29 44.29157 26.00200 20563 ft 361 kts 256°
2026-04-30 21:29 44.27040 25.90060 22262 ft 365 kts 255°
2026-04-30 21:30 44.25599 25.83227 23327 ft 369 kts 255°
2026-04-30 21:31 44.24152 25.72662 24556 ft 375 kts 271°
2026-04-30 21:31 44.24126 25.65341 25366 ft 380 kts 270°
2026-04-30 21:32 44.24071 25.57934 26164 ft 384 kts 270°
2026-04-30 21:32 44.24033 25.54193 26557 ft 387 kts 270°
2026-04-30 21:32 44.23995 25.50437 26926 ft 389 kts 270°
2026-04-30 21:32 44.23960 25.46657 27267 ft 391 kts 270°
2026-04-30 21:33 44.23927 25.42881 27342 ft 385 kts 270°
2026-04-30 21:33 44.23862 25.35481 27356 ft 380 kts 270°
2026-04-30 21:33 44.23828 25.31781 27359 ft 382 kts 270°
2026-04-30 21:34 44.23784 25.28070 27355 ft 383 kts 268°
2026-04-30 21:34 44.22518 25.20855 27356 ft 388 kts 247°
2026-04-30 21:34 44.21152 25.17591 27360 ft 392 kts 237°
2026-04-30 21:35 44.19492 25.14567 27362 ft 393 kts 236°
2026-04-30 21:35 44.17827 25.11554 27362 ft 393 kts 236°
2026-04-30 21:35 44.16160 25.08534 27364 ft 393 kts 236°
2026-04-30 21:35 44.14494 25.05515 27362 ft 393 kts 236°
2026-04-30 21:36 44.12832 25.02498 27351 ft 393 kts 236°
2026-04-30 21:36 44.11167 24.99480 27359 ft 393 kts 236°
2026-04-30 21:37 44.06176 24.90455 27369 ft 392 kts 236°
2026-04-30 21:37 44.04512 24.87450 27371 ft 392 kts 236°
2026-04-30 21:37 44.02846 24.84453 27375 ft 392 kts 235°
2026-04-30 21:37 44.01178 24.81457 27375 ft 392 kts 235°
2026-04-30 21:38 43.99509 24.78465 27377 ft 392 kts 235°
2026-04-30 21:38 43.97843 24.75477 27376 ft 391 kts 236°
2026-04-30 21:38 43.96181 24.72491 27378 ft 391 kts 236°
2026-04-30 21:38 43.94518 24.69506 27378 ft 391 kts 235°
2026-04-30 21:39 43.92853 24.66520 27368 ft 391 kts 235°
2026-04-30 21:39 43.91184 24.63530 27358 ft 392 kts 235°
2026-04-30 21:39 43.89511 24.60536 27355 ft 393 kts 235°
2026-04-30 21:39 43.87829 24.57532 27354 ft 394 kts 235°
2026-04-30 21:40 43.86147 24.54531 27355 ft 395 kts 235°
2026-04-30 21:40 43.84460 24.51528 27343 ft 395 kts 235°
2026-04-30 21:40 43.82772 24.48524 27352 ft 395 kts 235°
2026-04-30 21:40 43.81084 24.45521 27357 ft 395 kts 235°
2026-04-30 21:41 43.79397 24.42518 27362 ft 395 kts 235°
2026-04-30 21:41 43.77710 24.39523 27366 ft 395 kts 235°
2026-04-30 21:41 43.76015 24.36527 27370 ft 395 kts 235°
2026-04-30 21:41 43.74322 24.33533 27374 ft 395 kts 235°
2026-04-30 21:42 43.72630 24.30543 27377 ft 396 kts 234°
2026-04-30 21:42 43.70685 24.27830 27365 ft 400 kts 222°
2026-04-30 21:42 43.68341 24.25708 27364 ft 406 kts 210°
2026-04-30 21:42 43.65690 24.24310 27370 ft 412 kts 198°
2026-04-30 21:43 43.62839 24.23715 27366 ft 418 kts 186°
2026-04-30 21:43 43.60911 24.23654 27370 ft 419 kts 185°
2026-04-30 21:43 43.57047 24.23548 27123 ft 410 kts 185°
2026-04-30 21:43 43.54209 24.23464 26866 ft 406 kts 185°
2026-04-30 21:44 43.51392 24.23374 26596 ft 404 kts 185°
2026-04-30 21:44 43.48583 24.23283 26341 ft 403 kts 185°
2026-04-30 21:44 43.45786 24.23191 26090 ft 401 kts 185°
2026-04-30 21:44 43.43020 24.23103 25841 ft 393 kts 185°
2026-04-30 21:45 43.40308 24.23023 25590 ft 386 kts 185°
2026-04-30 21:45 43.38543 24.22972 25435 ft 381 kts 185°
2026-04-30 21:45 43.35920 24.22895 25184 ft 374 kts 185°
2026-04-30 21:45 43.33349 24.22815 24944 ft 366 kts 185°
2026-04-30 21:46 43.30827 24.22734 24685 ft 359 kts 185°
2026-04-30 21:46 43.28349 24.22654 24445 ft 353 kts 185°
2026-04-30 21:46 43.25914 24.22573 24210 ft 347 kts 185°
2026-04-30 21:46 43.23517 24.22495 23974 ft 342 kts 185°
2026-04-30 21:47 43.21159 24.22423 23702 ft 337 kts 185°
2026-04-30 21:47 43.18836 24.22355 23416 ft 332 kts 185°
2026-04-30 21:47 43.16529 24.22284 23040 ft 331 kts 185°
2026-04-30 21:47 43.14233 24.22177 22642 ft 329 kts 190°
2026-04-30 21:48 43.12010 24.21606 22240 ft 323 kts 201°
2026-04-30 21:48 43.09944 24.20490 21849 ft 317 kts 212°
2026-04-30 21:48 43.08094 24.18895 21410 ft 313 kts 222°
2026-04-30 21:48 43.06504 24.16892 20987 ft 310 kts 232°
2026-04-30 21:49 43.05145 24.14615 20575 ft 308 kts 235°
2026-04-30 21:49 43.03806 24.12328 20176 ft 309 kts 235°
2026-04-30 21:49 43.02457 24.10037 19771 ft 310 kts 235°
2026-04-30 21:49 43.01104 24.07749 19378 ft 310 kts 234°
2026-04-30 21:50 42.99749 24.05461 18992 ft 310 kts 234°
2026-04-30 21:50 42.98394 24.03173 18603 ft 310 kts 235°
2026-04-30 21:50 42.97038 24.00881 18148 ft 310 kts 234°
2026-04-30 21:50 42.95683 23.98590 17712 ft 310 kts 234°
2026-04-30 21:51 42.94327 23.96301 17274 ft 310 kts 234°
2026-04-30 21:51 42.92971 23.94009 16851 ft 310 kts 234°
2026-04-30 21:51 42.91613 23.91713 16440 ft 311 kts 234°
2026-04-30 21:51 42.90255 23.89419 16028 ft 311 kts 234°
2026-04-30 21:52 42.88891 23.87121 15609 ft 312 kts 234°
2026-04-30 21:52 42.87522 23.84814 15218 ft 313 kts 234°
2026-04-30 21:52 42.86128 23.82477 14810 ft 314 kts 232°
2026-04-30 21:52 42.84497 23.80480 14405 ft 318 kts 216°
2026-04-30 21:53 42.82514 23.79133 13997 ft 321 kts 200°
2026-04-30 21:53 42.80317 23.78551 13561 ft 324 kts 185°
2026-04-30 21:53 42.78085 23.78805 13124 ft 324 kts 161°
2026-04-30 21:53 42.76215 23.80427 12691 ft 320 kts 130°
2026-04-30 21:54 42.75176 23.83038 12276 ft 314 kts 103°
2026-04-30 21:54 42.74774 23.85937 11859 ft 311 kts 93°
2026-04-30 21:54 42.74648 23.88827 11461 ft 309 kts 89°
2026-04-30 21:54 42.74607 23.91727 11050 ft 302 kts 88°
2026-04-30 21:55 42.74495 23.94550 10636 ft 290 kts 99°
2026-04-30 21:55 42.73618 23.96918 10251 ft 285 kts 133°
2026-04-30 21:55 42.71944 23.98248 9821 ft 280 kts 167°
2026-04-30 21:55 42.70029 23.98425 9394 ft 273 kts 182°
2026-04-30 21:56 42.68241 23.97761 8957 ft 266 kts 215°
2026-04-30 21:56 42.67016 23.95970 8536 ft 257 kts 244°
2026-04-30 21:56 42.66485 23.93688 8106 ft 246 kts 271°
2026-04-30 21:56 42.66567 23.91414 7701 ft 241 kts 280°
2026-04-30 21:57 42.66711 23.89129 7291 ft 245 kts 280°
2026-04-30 21:57 42.66862 23.86788 6883 ft 252 kts 280°
2026-04-30 21:57 42.67016 23.84387 6459 ft 256 kts 280°
2026-04-30 21:57 42.67170 23.81963 6038 ft 260 kts 279°
2026-04-30 21:58 42.67325 23.79526 5616 ft 264 kts 278°
2026-04-30 21:58 42.67485 23.76997 5198 ft 266 kts 277°
2026-04-30 21:58 42.67631 23.74533 4768 ft 258 kts 277°
2026-04-30 21:58 42.67765 23.72139 4343 ft 251 kts 276°
2026-04-30 21:59 42.67894 23.69799 3925 ft 245 kts 276°
2026-04-30 21:59 42.68028 23.67557 3459 ft 229 kts 276°
2026-04-30 21:59 42.68155 23.65513 3089 ft 208 kts 276°
2026-04-30 22:00 42.68381 23.61942 3058 ft 171 kts 277°
2026-04-30 22:00 42.68570 23.58992 3076 ft 149 kts 278°
2026-04-30 22:00 42.68661 23.57600 3096 ft 145 kts 278°
2026-04-30 22:01 42.68746 23.56266 3101 ft 140 kts 278°
2026-04-30 22:01 42.68829 23.54964 3088 ft 137 kts 280°
2026-04-30 22:01 42.68910 23.53663 3005 ft 138 kts 281°
2026-04-30 22:01 42.68990 23.52369 2890 ft 137 kts 280°
2026-04-30 22:02 42.69071 23.51066 2787 ft 139 kts 278°
2026-04-30 22:02 42.69153 23.49754 2664 ft 140 kts 278°
2026-04-30 22:02 42.69231 23.48436 2492 ft 140 kts 277°
2026-04-30 22:02 42.69341 23.47121 2321 ft 140 kts 280°
2026-04-30 22:03 42.69426 23.45802 2249 ft 141 kts 272°
2026-04-30 22:03 42.69487 23.44460 1926 ft 141 kts 277°
2026-04-30 22:03 42.69564 23.43160 1767 ft 129 kts 281°
2026-04-30 22:03 42.69632 23.42138 1749 ft 72 kts 274°
2026-04-30 22:04 42.69649 23.41793 1750 ft 23 kts 272°
2026-04-30 22:04 42.69590 23.41599 1741 ft 24 kts 241°
2026-04-30 22:04 42.69446 23.41210 1745 ft 20 kts 216°
2026-04-30 22:05 42.69317 23.41183 1748 ft 20 kts 194°
2026-04-30 22:05 42.69190 23.41164 1745 ft 16 kts 166°
2026-04-30 22:05 42.69073 23.41215 1743 ft 17 kts 160°
2026-04-30 22:05 42.69063 23.41269 1743 ft 6 kts 77°
2026-04-30 22:06 42.69073 23.41314 1748 ft 0 kts 71°